Tracking 31028 objects as of 17-Jul-2025
HD Live streaming from Space Station
objects crossing your sky now

DELTA 1 DEB

Track DELTA 1 DEB now!
10-day predictions


NORAD ID: 7146
Int'l Code: 1973-086DL
Perigee: 1,450.2 km
Apogee: 1,544.0 km
Inclination: 101.8 °
Period: 115.8 minutes
Semi major axis: 7868 km
RCS: 0.1412 m2 (medium)
Launch date: November 6, 1973
Source: United States (US)
Launch site: AIR FORCE WESTERN TEST RANGE (AFWTR)

Note: This is SATELLITE DEBRIS
Your satellite tracking list
Your tracking list is empty




NASA's NSSDC Master Catalog

Two Line Element Set (TLE):
1 07146U 73086DL  25197.63467964 -.00000307  00000-0 -18615-2 0  9996
2 07146 101.7592  79.1345 0059607  77.2407 339.4815 12.43942194332176
Source of the keplerian elements: AFSPC